Time,TemperatureF,DewpointF,PressureIn,WindDirection,WindDirectionDegrees,WindSpeedMPH,WindSpeedGustMPH,Humidity,HourlyPrecipIn,Conditions,Clouds,dailyrainin,SoftwareType,DateUTC
2013-01-17 00:02:00,29.0,20.0,-100.00,South,190,3.0,4.0,69,-99.99,,,-99.99,,2013-01-17 06:02:00,
2013-01-17 00:12:00,29.0,20.0,-100.00,South,180,3.0,4.0,70,-99.99,,,-99.99,,2013-01-17 06:12:00,
2013-01-17 00:22:00,29.0,20.0,-100.00,South,180,3.0,4.0,70,-99.99,,,-99.99,,2013-01-17 06:22:00,
2013-01-17 00:32:00,28.0,20.0,-100.00,SW,230,2.0,3.0,71,-99.99,,,-99.99,,2013-01-17 06:32:00,
2013-01-17 00:42:00,28.0,20.0,-100.00,SW,230,2.0,3.0,71,-99.99,,,-99.99,,2013-01-17 06:42:00,
2013-01-17 00:53:00,29.0,20.0,-100.00,SSW,200,3.0,3.0,70,-99.99,,,-99.99,,2013-01-17 06:53:00,
2013-01-17 01:02:00,29.0,20.0,-100.00,SSW,200,3.0,3.0,70,-99.99,,,-99.99,,2013-01-17 07:02:00,
2013-01-17 01:12:00,29.0,20.0,-100.00,South,190,3.0,3.0,70,-99.99,,,-99.99,,2013-01-17 07:12:00,
2013-01-17 01:22:00,29.0,21.0,-100.00,South,180,3.0,3.0,71,-99.99,,,-99.99,,2013-01-17 07:22:00,
2013-01-17 01:33:00,29.0,21.0,-100.00,South,180,3.0,3.0,71,-99.99,,,-99.99,,2013-01-17 07:33:00,
2013-01-17 01:42:00,29.0,21.0,-100.00,South,180,1.0,2.0,71,-99.99,,,-99.99,,2013-01-17 07:42:00,
2013-01-17 01:53:00,29.0,21.0,-100.00,South,180,3.0,4.0,71,-99.99,,,-99.99,,2013-01-17 07:53:00,
2013-01-17 02:02:00,29.0,21.0,-100.00,South,180,3.0,4.0,71,-99.99,,,-99.99,,2013-01-17 08:02:00,
2013-01-17 02:12:00,29.0,20.0,-100.00,South,180,1.0,2.0,71,-99.99,,,-99.99,,2013-01-17 08:12:00,
2013-01-17 02:22:00,28.0,20.0,-100.00,SSW,205,0.0,1.0,72,-99.99,,,-99.99,,2013-01-17 08:22:00,
2013-01-17 02:32:00,28.0,20.0,-100.00,SSW,205,0.0,1.0,72,-99.99,,,-99.99,,2013-01-17 08:32:00,
2013-01-17 02:43:00,28.0,21.0,-100.00,WSW,255,0.0,0.0,72,-99.99,,,-99.99,,2013-01-17 08:43:00,
2013-01-17 02:53:00,28.0,21.0,-100.00,WNW,290,1.0,3.0,73,-99.99,,,-99.99,,2013-01-17 08:53:00,
2013-01-17 03:02:00,28.0,21.0,-100.00,WNW,290,1.0,3.0,73,-99.99,,,-99.99,,2013-01-17 09:02:00,
2013-01-17 03:12:00,29.0,21.0,-100.00,WNW,285,1.0,2.0,72,-99.99,,,-99.99,,2013-01-17 09:12:00,
2013-01-17 03:22:00,30.0,21.0,-100.00,WNW,285,1.0,2.0,70,-99.99,,,-99.99,,2013-01-17 09:22:00,
2013-01-17 03:32:00,30.0,21.0,-100.00,WNW,285,1.0,2.0,70,-99.99,,,-99.99,,2013-01-17 09:32:00,
2013-01-17 03:42:00,30.0,21.0,-100.00,SW,220,0.0,0.0,69,-99.99,,,-99.99,,2013-01-17 09:42:00,
2013-01-17 03:52:00,29.0,20.0,-100.00,SW,235,0.0,1.0,70,-99.99,,,-99.99,,2013-01-17 09:52:00,
2013-01-17 04:02:00,29.0,20.0,-100.00,SW,235,0.0,1.0,70,-99.99,,,-99.99,,2013-01-17 10:02:00,
2013-01-17 04:12:00,29.0,20.0,-100.00,WNW,290,2.0,3.0,71,-99.99,,,-99.99,,2013-01-17 10:12:00,
2013-01-17 04:22:00,28.0,20.0,-100.00,West,275,0.0,2.0,71,-99.99,,,-99.99,,2013-01-17 10:22:00,
2013-01-17 04:32:00,28.0,20.0,-100.00,West,275,0.0,2.0,71,-99.99,,,-99.99,,2013-01-17 10:32:00,
2013-01-17 04:42:00,29.0,21.0,-100.00,WNW,295,1.0,1.0,70,-99.99,,,-99.99,,2013-01-17 10:42:00,
2013-01-17 04:53:00,30.0,21.0,-100.00,WNW,300,1.0,2.0,68,-99.99,,,-99.99,,2013-01-17 10:53:00,
2013-01-17 05:02:00,30.0,21.0,-100.00,WNW,300,1.0,2.0,68,-99.99,,,-99.99,,2013-01-17 11:02:00,
2013-01-17 05:12:00,30.0,21.0,-100.00,NNW,330,1.0,3.0,67,-99.99,,,-99.99,,2013-01-17 11:12:00,
2013-01-17 05:22:00,31.0,21.0,-100.00,NNW,330,4.0,6.0,66,-99.99,,,-99.99,,2013-01-17 11:22:00,
2013-01-17 05:33:00,31.0,21.0,-100.00,NNW,330,4.0,6.0,66,-99.99,,,-99.99,,2013-01-17 11:33:00,
2013-01-17 05:42:00,31.0,20.0,-100.00,North,0,2.0,3.0,64,-99.99,,,-99.99,,2013-01-17 11:42:00,
2013-01-17 05:53:00,31.0,20.0,-100.00,NNW,330,4.0,8.0,63,-99.99,,,-99.99,,2013-01-17 11:53:00,
2013-01-17 06:02:00,31.0,20.0,-100.00,NNW,330,4.0,8.0,63,-99.99,,,-99.99,,2013-01-17 12:02:00,
2013-01-17 06:12:00,31.0,20.0,-100.00,NNW,335,1.0,3.0,63,-99.99,,,-99.99,,2013-01-17 12:12:00,
2013-01-17 06:23:00,31.0,20.0,-100.00,NW,305,6.0,8.0,64,-99.99,,,-99.99,,2013-01-17 12:23:00,
2013-01-17 06:33:00,31.0,20.0,-100.00,NW,305,6.0,8.0,64,-99.99,,,-99.99,,2013-01-17 12:33:00,
2013-01-17 06:43:00,31.0,21.0,-100.00,NE,35,0.0,0.0,65,-99.99,,,-99.99,,2013-01-17 12:43:00,
2013-01-17 06:53:00,31.0,21.0,-100.00,NNW,335,2.0,4.0,66,-99.99,,,-99.99,,2013-01-17 12:53:00,
2013-01-17 07:03:00,31.0,21.0,-100.00,NNW,335,2.0,4.0,66,-99.99,,,-99.99,,2013-01-17 13:03:00,
2013-01-17 07:12:00,31.0,21.0,-100.00,NNW,345,1.0,3.0,66,-99.99,,,-99.99,,2013-01-17 13:12:00,
2013-01-17 07:23:00,32.0,22.0,-100.00,North,355,0.0,2.0,66,-99.99,,,-99.99,,2013-01-17 13:23:00,
2013-01-17 07:33:00,32.0,22.0,-100.00,NW,325,1.0,3.0,66,-99.99,,,-99.99,,2013-01-17 13:33:00,
2013-01-17 07:43:00,32.0,22.0,-100.00,NW,325,1.0,3.0,66,-99.99,,,-99.99,,2013-01-17 13:43:00,
2013-01-17 07:53:00,32.0,22.0,-100.00,NNW,340,1.0,4.0,66,-99.99,,,-99.99,,2013-01-17 13:53:00,
2013-01-17 08:03:00,32.0,22.0,-100.00,NNW,340,1.0,4.0,66,-99.99,,,-99.99,,2013-01-17 14:03:00,
2013-01-17 08:12:00,32.0,22.0,-100.00,NW,310,1.0,3.0,67,-99.99,,,-99.99,,2013-01-17 14:12:00,
2013-01-17 08:23:00,33.0,23.0,-100.00,North,350,1.0,3.0,67,-99.99,,,-99.99,,2013-01-17 14:23:00,
2013-01-17 08:33:00,33.0,23.0,-100.00,North,350,1.0,3.0,67,-99.99,,,-99.99,,2013-01-17 14:33:00,
2013-01-17 08:43:00,34.0,24.0,-100.00,North,355,1.0,1.0,66,-99.99,,,-99.99,,2013-01-17 14:43:00,
2013-01-17 08:53:00,34.0,24.0,-100.00,NNE,25,1.0,3.0,66,-99.99,,,-99.99,,2013-01-17 14:53:00,
2013-01-17 09:03:00,34.0,24.0,-100.00,NNE,25,1.0,3.0,66,-99.99,,,-99.99,,2013-01-17 15:03:00,
2013-01-17 09:12:00,34.0,24.0,-100.00,North,355,1.0,2.0,65,-99.99,,,-99.99,,2013-01-17 15:12:00,
2013-01-17 09:23:00,35.0,25.0,-100.00,NNW,330,1.0,3.0,65,-99.99,,,-99.99,,2013-01-17 15:23:00,
2013-01-17 09:33:00,37.0,26.0,-100.00,North,0,1.0,3.0,63,-99.99,,,-99.99,,2013-01-17 15:33:00,
2013-01-17 09:43:00,37.0,26.0,-100.00,North,0,1.0,3.0,63,-99.99,,,-99.99,,2013-01-17 15:43:00,
2013-01-17 09:53:00,38.0,26.0,-100.00,NNW,335,6.0,10.0,61,-99.99,,,-99.99,,2013-01-17 15:53:00,
2013-01-17 10:02:00,38.0,26.0,-100.00,NNW,335,6.0,10.0,61,-99.99,,,-99.99,,2013-01-17 16:02:00,
2013-01-17 10:12:00,40.0,27.0,-100.00,North,0,3.0,6.0,60,-99.99,,,-99.99,,2013-01-17 16:12:00,
2013-01-17 10:23:00,39.0,27.0,-100.00,NNW,335,9.0,14.0,60,-99.99,,,-99.99,,2013-01-17 16:23:00,
2013-01-17 10:33:00,39.0,27.0,-100.00,NNW,335,9.0,14.0,60,-99.99,,,-99.99,,2013-01-17 16:33:00,
2013-01-17 10:43:00,40.0,27.0,-100.00,North,355,10.0,14.0,60,-99.99,,,-99.99,,2013-01-17 16:43:00,
2013-01-17 10:53:00,41.0,27.0,-100.00,NNW,330,9.0,14.0,58,-99.99,,,-99.99,,2013-01-17 16:53:00,
2013-01-17 11:03:00,41.0,27.0,-100.00,NNW,330,9.0,14.0,58,-99.99,,,-99.99,,2013-01-17 17:03:00,
2013-01-17 11:13:00,40.0,27.0,-100.00,NNW,335,8.0,10.0,59,-99.99,,,-99.99,,2013-01-17 17:13:00,
2013-01-17 11:23:00,41.0,28.0,-100.00,North,0,10.0,14.0,59,-99.99,,,-99.99,,2013-01-17 17:23:00,
2013-01-17 11:33:00,41.0,28.0,-100.00,North,0,10.0,14.0,59,-99.99,,,-99.99,,2013-01-17 17:33:00,
2013-01-17 11:43:00,42.0,28.0,-100.00,NNW,330,10.0,16.0,58,-99.99,,,-99.99,,2013-01-17 17:43:00,
2013-01-17 11:53:00,42.0,28.0,-100.00,NNW,345,6.0,9.0,57,-99.99,,,-99.99,,2013-01-17 17:53:00,
2013-01-17 12:03:00,42.0,28.0,-100.00,NNW,345,6.0,9.0,57,-99.99,,,-99.99,,2013-01-17 18:03:00,
2013-01-17 12:12:00,43.0,29.0,-100.00,NNW,335,6.0,9.0,57,-99.99,,,-99.99,,2013-01-17 18:12:00,
2013-01-17 12:22:00,43.0,29.0,-100.00,NE,35,4.0,12.0,58,-99.99,,,-99.99,,2013-01-17 18:22:00,
2013-01-17 12:33:00,43.0,29.0,-100.00,NE,35,4.0,12.0,58,-99.99,,,-99.99,,2013-01-17 18:33:00,
2013-01-17 12:43:00,42.0,29.0,-100.00,North,355,10.0,16.0,60,-99.99,,,-99.99,,2013-01-17 18:43:00,
2013-01-17 12:53:00,42.0,30.0,-100.00,WNW,300,6.0,12.0,62,-99.99,,,-99.99,,2013-01-17 18:53:00,
2013-01-17 13:03:00,42.0,30.0,-100.00,WNW,300,6.0,12.0,62,-99.99,,,-99.99,,2013-01-17 19:03:00,
2013-01-17 13:12:00,41.0,31.0,-100.00,NW,310,11.0,16.0,65,-99.99,,,-99.99,,2013-01-17 19:12:00,
2013-01-17 13:23:00,41.0,30.0,-100.00,NW,325,9.0,12.0,66,-99.99,,,-99.99,,2013-01-17 19:23:00,
2013-01-17 13:33:00,41.0,30.0,-100.00,NW,325,9.0,12.0,66,-99.99,,,-99.99,,2013-01-17 19:33:00,
2013-01-17 13:43:00,41.0,31.0,-100.00,NNW,330,8.0,12.0,66,-99.99,,,-99.99,,2013-01-17 19:43:00,
2013-01-17 13:53:00,40.0,31.0,-100.00,WNW,300,10.0,14.0,68,-99.99,,,-99.99,,2013-01-17 19:53:00,
2013-01-17 14:03:00,40.0,31.0,-100.00,WNW,300,10.0,14.0,68,-99.99,,,-99.99,,2013-01-17 20:03:00,
2013-01-17 14:12:00,40.0,30.0,-100.00,NNW,330,10.0,14.0,68,-99.99,,,-99.99,,2013-01-17 20:12:00,
2013-01-17 14:23:00,40.0,30.0,-100.00,NNW,335,16.0,24.0,68,-99.99,,,-99.99,,2013-01-17 20:23:00,
2013-01-17 14:33:00,40.0,30.0,-100.00,NNW,335,16.0,24.0,68,-99.99,,,-99.99,,2013-01-17 20:33:00,
2013-01-17 14:43:00,40.0,30.0,-100.00,NW,305,10.0,14.0,67,-99.99,,,-99.99,,2013-01-17 20:43:00,
2013-01-17 14:54:00,39.0,29.0,-100.00,NNW,340,11.0,21.0,66,-99.99,,,-99.99,,2013-01-17 20:54:00,
2013-01-17 15:03:00,39.0,29.0,-100.00,NNW,340,11.0,21.0,66,-99.99,,,-99.99,,2013-01-17 21:03:00,
2013-01-17 15:13:00,40.0,29.0,-100.00,NW,325,14.0,21.0,66,-99.99,,,-99.99,,2013-01-17 21:13:00,
2013-01-17 15:23:00,41.0,29.0,-100.00,North,5,9.0,14.0,63,-99.99,,,-99.99,,2013-01-17 21:23:00,
2013-01-17 15:33:00,41.0,29.0,-100.00,North,5,9.0,14.0,63,-99.99,,,-99.99,,2013-01-17 21:33:00,
2013-01-17 15:43:00,40.0,27.0,-100.00,North,10,6.0,11.0,59,-99.99,,,-99.99,,2013-01-17 21:43:00,
2013-01-17 15:53:00,39.0,26.0,-100.00,NW,320,12.0,19.0,59,-99.99,,,-99.99,,2013-01-17 21:53:00,
2013-01-17 16:03:00,39.0,26.0,-100.00,NW,320,12.0,19.0,59,-99.99,,,-99.99,,2013-01-17 22:03:00,
2013-01-17 16:12:00,39.0,26.0,-100.00,NW,320,12.0,19.0,59,-99.99,,,-99.99,,2013-01-17 22:12:00,
2013-01-17 16:23:00,38.0,26.0,-100.00,NW,310,9.0,12.0,61,-99.99,,,-99.99,,2013-01-17 22:23:00,
2013-01-17 16:33:00,38.0,26.0,-100.00,NW,310,9.0,12.0,61,-99.99,,,-99.99,,2013-01-17 22:33:00,
2013-01-17 16:43:00,38.0,26.0,-100.00,NNW,330,10.0,16.0,61,-99.99,,,-99.99,,2013-01-17 22:43:00,
2013-01-17 16:53:00,38.0,26.0,-100.00,NW,320,6.0,11.0,61,-99.99,,,-99.99,,2013-01-17 22:53:00,
2013-01-17 17:03:00,38.0,26.0,-100.00,NW,320,6.0,11.0,61,-99.99,,,-99.99,,2013-01-17 23:03:00,
2013-01-17 17:12:00,37.0,25.0,-100.00,NW,310,9.0,14.0,61,-99.99,,,-99.99,,2013-01-17 23:12:00,
2013-01-17 17:22:00,37.0,25.0,-100.00,NW,315,11.0,16.0,62,-99.99,,,-99.99,,2013-01-17 23:22:00,
2013-01-17 17:33:00,37.0,25.0,-100.00,NW,315,11.0,16.0,62,-99.99,,,-99.99,,2013-01-17 23:33:00,
2013-01-17 17:43:00,36.0,25.0,-100.00,NNW,340,4.0,8.0,62,-99.99,,,-99.99,,2013-01-17 23:43:00,
2013-01-17 17:53:00,36.0,25.0,-100.00,North,5,2.0,3.0,63,-99.99,,,-99.99,,2013-01-17 23:53:00,
2013-01-17 18:03:00,36.0,25.0,-100.00,North,5,2.0,3.0,63,-99.99,,,-99.99,,2013-01-18 00:03:00,
2013-01-17 18:12:00,36.0,24.0,-100.00,NNW,335,6.0,10.0,63,-99.99,,,-99.99,,2013-01-18 00:12:00,
2013-01-17 18:23:00,35.0,24.0,-100.00,NNW,335,4.0,10.0,63,-99.99,,,-99.99,,2013-01-18 00:23:00,
2013-01-17 18:32:00,35.0,24.0,-100.00,NNW,335,4.0,10.0,63,-99.99,,,-99.99,,2013-01-18 00:32:00,
2013-01-17 18:42:00,35.0,24.0,-100.00,NW,310,4.0,8.0,63,-99.99,,,-99.99,,2013-01-18 00:42:00,
2013-01-17 18:53:00,34.0,23.0,-100.00,NNW,330,6.0,10.0,63,-99.99,,,-99.99,,2013-01-18 00:53:00,
2013-01-17 19:03:00,34.0,23.0,-100.00,NNW,330,6.0,10.0,63,-99.99,,,-99.99,,2013-01-18 01:03:00,
2013-01-17 19:12:00,34.0,23.0,-100.00,NW,320,3.0,4.0,62,-99.99,,,-99.99,,2013-01-18 01:12:00,
2013-01-17 19:23:00,34.0,22.0,-100.00,North,355,4.0,9.0,61,-99.99,,,-99.99,,2013-01-18 01:23:00,
2013-01-17 19:33:00,34.0,22.0,-100.00,North,350,3.0,4.0,60,-99.99,,,-99.99,,2013-01-18 01:33:00,
2013-01-17 19:43:00,34.0,22.0,-100.00,North,350,3.0,4.0,60,-99.99,,,-99.99,,2013-01-18 01:43:00,
2013-01-17 19:53:00,34.0,21.0,-100.00,NNW,335,4.0,8.0,60,-99.99,,,-99.99,,2013-01-18 01:53:00,
2013-01-17 20:03:00,34.0,21.0,-100.00,NNW,335,4.0,8.0,60,-99.99,,,-99.99,,2013-01-18 02:03:00,
2013-01-17 20:12:00,34.0,21.0,-100.00,NNW,345,4.0,6.0,60,-99.99,,,-99.99,,2013-01-18 02:12:00,
2013-01-17 20:22:00,33.0,21.0,-100.00,North,0,8.0,12.0,60,-99.99,,,-99.99,,2013-01-18 02:22:00,
2013-01-17 20:32:00,33.0,21.0,-100.00,North,0,8.0,12.0,60,-99.99,,,-99.99,,2013-01-18 02:32:00,
2013-01-17 20:42:00,33.0,21.0,-100.00,NNW,330,3.0,6.0,60,-99.99,,,-99.99,,2013-01-18 02:42:00,
2013-01-17 20:53:00,33.0,21.0,-100.00,NW,320,6.0,10.0,60,-99.99,,,-99.99,,2013-01-18 02:53:00,
2013-01-17 21:02:00,33.0,21.0,-100.00,NW,320,6.0,10.0,60,-99.99,,,-99.99,,2013-01-18 03:02:00,
2013-01-17 21:12:00,33.0,21.0,-100.00,NNW,330,3.0,6.0,61,-99.99,,,-99.99,,2013-01-18 03:12:00,
2013-01-17 21:23:00,32.0,21.0,-100.00,North,355,2.0,3.0,62,-99.99,,,-99.99,,2013-01-18 03:23:00,
2013-01-17 21:33:00,32.0,21.0,-100.00,North,355,2.0,3.0,62,-99.99,,,-99.99,,2013-01-18 03:33:00,
2013-01-17 21:42:00,32.0,20.0,-100.00,North,5,2.0,3.0,63,-99.99,,,-99.99,,2013-01-18 03:42:00,
2013-01-17 21:53:00,31.0,20.0,-100.00,North,0,2.0,3.0,64,-99.99,,,-99.99,,2013-01-18 03:53:00,
2013-01-17 22:02:00,31.0,20.0,-100.00,North,0,2.0,3.0,64,-99.99,,,-99.99,,2013-01-18 04:02:00,
2013-01-17 22:12:00,31.0,20.0,-100.00,North,0,2.0,3.0,65,-99.99,,,-99.99,,2013-01-18 04:12:00,
2013-01-17 22:22:00,30.0,20.0,-100.00,North,350,3.0,4.0,66,-99.99,,,-99.99,,2013-01-18 04:22:00,
2013-01-17 22:33:00,30.0,20.0,-100.00,NNW,335,1.0,4.0,66,-99.99,,,-99.99,,2013-01-18 04:33:00,
2013-01-17 22:42:00,30.0,20.0,-100.00,NNW,335,1.0,4.0,66,-99.99,,,-99.99,,2013-01-18 04:42:00,
2013-01-17 22:53:00,30.0,21.0,-100.00,NNW,340,3.0,4.0,67,-99.99,,,-99.99,,2013-01-18 04:53:00,
2013-01-17 23:03:00,30.0,21.0,-100.00,NNW,340,3.0,4.0,67,-99.99,,,-99.99,,2013-01-18 05:03:00,
2013-01-17 23:12:00,30.0,20.0,-100.00,NNW,330,2.0,3.0,67,-99.99,,,-99.99,,2013-01-18 05:12:00,
2013-01-17 23:22:00,30.0,20.0,-100.00,NNW,330,1.0,3.0,67,-99.99,,,-99.99,,2013-01-18 05:22:00,
2013-01-17 23:31:00,29.0,20.0,-100.00,NNW,345,4.0,6.0,68,-99.99,,,-99.99,,2013-01-18 05:31:00,
2013-01-17 23:33:00,29.0,20.0,-100.00,North,0,1.0,2.0,68,-99.99,,,-99.99,,2013-01-18 05:33:00,
2013-01-17 23:42:00,29.0,20.0,-100.00,North,0,1.0,2.0,68,-99.99,,,-99.99,,2013-01-18 05:42:00,
2013-01-17 23:53:00,29.0,20.0,-100.00,North,355,3.0,3.0,68,-99.99,,,-99.99,,2013-01-18 05:53:00,